FW8363 Weather Reports


Display with metric or nautical units.
time (UTC)temp
F
wind
direction
speed
MPH
gust
MPH
rain 1hr
in
rain 24hr
in
rain mn
in
humidity
%
barometer
mb
20260902150026 87 325 1.0 4.0 0.00 0.00 0.00 71 1017.4
20260902145516 87 342 2.0 4.0 0.00 0.00 0.00 71 1017.4
20260902145028 88 271 2.0 3.0 0.00 0.00 0.00 70 1017.4
20260902144514 88 270 1.0 2.0 0.00 0.00 0.00 69 1017.4
20260902144024 89 270 0.0 4.0 0.00 0.00 0.00 68 1017.3
20260902143512 89 270 1.0 4.0 0.00 0.00 0.00 68 1017.3
20260902143023 89 282 0.0 2.0 0.00 0.00 0.00 67 1017.2
20260902142512 89 282 0.0 3.0 0.00 0.00 0.00 66 1017.2
20260902142023 89 282 1.0 3.0 0.00 0.00 0.00 67 1017.1
20260902141510 88 282 2.0 3.0 0.00 0.00 0.00 68 1017.0
20260902141020 88 226 0.0 4.0 0.00 0.00 0.00 69 1016.9
20260902140510 88 204 2.0 4.0 0.00 0.00 0.00 69 1016.9
20260902140025 88 200 2.0 4.0 0.00 0.00 0.00 68 1016.8
20260902135514 88 235 1.0 4.0 0.00 0.00 0.00 69 1016.9
20260902135024 88 140 2.0 4.0 0.00 0.00 0.00 67 1016.8
20260902134514 88 108 2.0 5.0 0.00 0.00 0.00 69 1016.8
20260902134023 88 130 1.0 4.0 0.00 0.00 0.00 71 1016.8
20260902133513 88 117 0.0 3.0 0.00 0.00 0.00 69 1016.9
20260902133023 87 116 1.0 3.0 0.00 0.00 0.00 72 1016.7
20260902132511 88 72 2.0 3.0 0.00 0.00 0.00 71 1016.8
20260902132020 88 74 1.0 4.0 0.00 0.00 0.00 70 1016.7
20260902131511 88 51 2.0 4.0 0.00 0.00 0.00 69 1016.7
20260902131019 89 61 0.0 2.0 0.00 0.00 0.00 70 1016.7
20260902130529 88 103 0.0 3.0 0.00 0.00 0.00 70 1016.7
20260902130012 88 123 1.0 3.0 0.00 0.00 0.00 69 1016.8
20260902125522 89 147 1.0 3.0 0.00 0.00 0.00 68 1016.7
20260902125011 89 122 0.0 0.0 0.00 0.00 0.00 70 1016.7
20260902124520 88 84 0.0 0.0 0.00 0.00 0.00 69 1016.7
20260902124010 88 84 0.0 0.0 0.00 0.00 0.00 70 1016.7
20260902123519 88 91 0.0 0.0 0.00 0.00 0.00 70 1016.8
20260902123028 88 132 0.0 0.0 0.00 0.00 0.00 71 1016.8
20260902122517 87 132 0.0 0.0 0.00 0.00 0.00 72 1016.8
20260902122025 87 132 0.0 0.0 0.00 0.00 0.00 73 1016.8
20260902121515 86 132 0.0 0.0 0.00 0.00 0.00 74 1016.8
20260902121024 86 132 0.0 0.0 0.00 0.00 0.00 74 1016.8
20260902120514 86 132 0.0 0.0 0.00 0.00 0.00 75 1016.9
20260902115035 85 132 0.0 0.0 0.00 0.00 0.00 76 1016.7
20260902114158 85 132 0.0 0.0 0.00 0.00 0.00 77 1016.5
20260902111609 84 132 0.0 0.0 0.00 0.00 0.00 77 1016.3
20260902105502 84 132 0.0 0.0 0.00 0.00 0.00 78 1016.0
20260902101647 84 132 0.0 0.0 0.00 0.00 0.00 79 1015.7
20260902095603 85 132 0.0 0.0 0.00 0.00 0.00 78 1015.7
20260902094048 85 132 0.0 0.0 0.00 0.00 0.00 78 1015.7
20260902092528 84 132 0.0 0.0 0.00 0.00 0.00 78 1015.6
20260902084647 84 132 0.0 2.0 0.00 0.00 0.00 79 1015.4
20260902083124 84 120 0.0 0.0 0.00 0.00 0.00 80 1015.5
20260902081624 85 120 0.0 4.0 0.00 0.00 0.00 80 1015.7
20260902075547 85 118 0.0 4.0 0.00 0.00 0.00 80 1015.7
20260902074025 85 126 1.0 4.0 0.00 0.00 0.00 79 1015.8
20260902072503 85 105 2.0 4.0 0.00 0.00 0.00 78 1015.7
20260902063647 85 92 2.0 6.0 0.00 0.00 0.00 77 1015.8
20260902062124 85 99 3.0 7.0 0.00 0.00 0.00 78 1015.9
20260902060616 85 116 4.0 7.0 0.00 0.00 0.00 77 1016.0
20260902055502 85 99 3.0 8.0 0.00 0.00 0.00 77 1016.1
20260902051648 85 113 3.0 8.0 0.00 0.00 0.00 78 1016.3
20260902045601 85 74 6.0 9.0 0.00 0.00 0.00 76 1016.6
20260902041647 86 52 7.0 11.0 0.00 0.00 0.00 74 1016.5
20260902035506 86 35 7.0 10.0 0.00 0.00 0.00 75 1016.5
20260902031646 85 32 9.0 12.0 0.00 0.00 0.00 78 1016.6
20260902023151 86 30 7.0 13.0 0.00 0.00 0.00 76 1016.6
20260902015517 85 30 9.0 12.0 0.00 0.00 0.00 78 1016.5
20260902005529 85 56 8.0 16.0 0.00 0.00 0.00 76 1016.2
20260902004018 87 45 13.0 16.0 0.00 0.00 0.00 78 1015.9
20260901235645 87 336 8.0 10.0 0.00 0.00 0.00 69 1016.1
20260901234129 87 313 7.0 12.0 0.00 0.00 0.00 69 1016.1
20260901232613 87 325 5.0 10.0 0.00 0.00 0.00 69 1016.1
20260901231043 87 317 9.0 11.0 0.00 0.00 0.00 73 1016.3
20260901225528 87 300 4.0 8.0 0.00 0.00 0.00 72 1016.5
20260901224013 88 284 4.0 7.0 0.00 0.00 0.00 72 1016.2
20260901215551 90 239 4.0 7.0 0.00 0.00 0.00 66 1015.7
20260901214021 90 267 1.0 5.0 0.00 0.00 0.00 66 1015.7
20260901211015 88 268 2.0 7.0 0.00 0.00 0.00 71 1015.3
20260901205508 88 269 4.0 8.0 0.00 0.00 0.00 70 1015.2
20260901204017 88 287 2.0 6.0 0.00 0.00 0.00 70 1015.1
20260901195657 87 167 3.0 7.0 0.00 0.00 0.00 71 1015.8
20260901194057 87 94 1.0 5.0 0.00 0.00 0.00 76 1016.3
20260901192510 87 101 4.0 10.0 0.00 0.00 0.00 74 1016.4
20260901183137 86 47 3.0 6.0 0.00 0.00 0.00 76 1016.8
20260901181643 87 15 3.0 5.0 0.00 0.00 0.00 76 1017.0
20260901171510 86 10 5.0 8.0 0.00 0.00 0.00 77 1017.5
20260901171019 86 24 5.0 7.0 0.00 0.00 0.00 76 1017.4
20260901170508 86 14 4.0 8.0 0.00 0.00 0.00 78 1017.5
20260901170024 86 18 5.0 8.0 0.00 0.00 0.00 78 1017.5
20260901165513 86 25 5.0 8.0 0.00 0.00 0.00 77 1017.6
20260901165023 86 16 5.0 8.0 0.00 0.00 0.00 78 1017.7
20260901164513 86 23 6.0 8.0 0.00 0.00 0.00 79 1017.7
20260901164022 86 12 6.0 9.0 0.00 0.00 0.00 80 1017.7
20260901163514 86 35 6.0 9.0 0.00 0.00 0.00 78 1017.7
20260901163021 86 8 7.0 9.0 0.00 0.00 0.00 79 1017.7
20260901162513 86 22 4.0 8.0 0.00 0.00 0.00 77 1017.7
20260901162019 86 47 5.0 8.0 0.00 0.00 0.00 77 1017.7
20260901161509 86 32 4.0 8.0 0.00 0.00 0.00 77 1017.7
20260901161022 86 42 4.0 8.0 0.00 0.00 0.00 76 1017.8
20260901160507 86 11 4.0 8.0 0.00 0.00 0.00 77 1017.8
20260901160026 86 20 4.0 6.0 0.00 0.00 0.00 76 1017.9
20260901155515 86 27 5.0 7.0 0.00 0.00 0.00 75 1017.9
20260901155025 86 33 4.0 9.0 0.00 0.00 0.00 75 1017.9
20260901154523 86 47 5.0 9.0 0.00 0.00 0.00 75 1017.9
20260901154024 86 31 5.0 8.0 0.00 0.00 0.00 76 1017.8
20260901153517 86 17 3.0 5.0 0.00 0.00 0.00 75 1017.8
20260901153032 86 3 2.0 5.0 0.00 0.00 0.00 75 1017.8
20260901152512 86 9 3.0 5.0 0.00 0.00 0.00 75 1017.8
20260901152022 86 359 3.0 5.0 0.00 0.00 0.00 76 1017.8
20260901151513 86 359 3.0 9.0 0.00 0.00 0.00 76 1017.8
20260901151018 86 349 4.0 9.0 0.00 0.00 0.00 76 1017.7
20260901150509 86 3 5.0 7.0 0.00 0.00 0.00 76 1017.7